• en France
  • Liste des pays
  • À 7 jours
  • Température de l'eau
  • Carte satellitaire
  • Carte météo
  • Widgets météo
  • user-avatar
    Se connecter

    Météo par heure à Paris

    Ce jour, 23 Juillet, Lundi

    Heure Température Précipitation Vent Pression Humidité
    00:00 +19°C° 0 mm 2 m/s 758 mmHg 81%
    01:00 +19°C° 0 mm 2 m/s 758 mmHg 82%
    02:00 +19°C° 0 mm 1 m/s 758 mmHg 83%
    03:00 +19°C° 0 mm 1 m/s 758 mmHg 84%
    04:00 +20°C° 0 mm 1 m/s 758 mmHg 82%
    05:00 +20°C° 0 mm 1 m/s 758 mmHg 80%
    06:00 +21°C° 0 mm 1 m/s 759 mmHg 78%
    07:00 +23°C° 0 mm 1 m/s 759 mmHg 72%
    08:00 +24°C° 0 mm 1 m/s 759 mmHg 66%
    09:00 +26°C° 0 mm 1 m/s 759 mmHg 59%
    10:00 +27°C° 0 mm 1 m/s 759 mmHg 56%
    11:00 +29°C° 0 mm 1 m/s 759 mmHg 52%
    12:00 +30°C° 0 mm 1 m/s 758 mmHg 48%
    13:00 +30°C° 0 mm 1 m/s 758 mmHg 47%
    14:00 +30°C° 0 mm 1 m/s 758 mmHg 46%
    15:00 +30°C° 0 mm 1 m/s 758 mmHg 45%
    16:00 +30°C° 0 mm 1 m/s 758 mmHg 49%
    17:00 +29°C° 0 mm 1 m/s 757 mmHg 52%
    18:00 +29°C° 0 mm 1 m/s 757 mmHg 55%
    19:00 +27°C° 0 mm 1 m/s 757 mmHg 59%
    20:00 +26°C° 0 mm 1 m/s 757 mmHg 63%
    21:00 +24°C° 0 mm 2 m/s 758 mmHg 68%
    22:00 +23°C° 0 mm 2 m/s 757 mmHg 70%
    23:00 +23°C° 0 mm 1 m/s 757 mmHg 72%

    Demain, 24 Juillet, Mardi

    Heure Température Précipitation Vent Pression Humidité
    00:00 +22°C° 0 mm 1 m/s 757 mmHg 74%
    01:00 +22°C° 0 mm 1 m/s 757 mmHg 75%
    02:00 +21°C° 0 mm 1 m/s 757 mmHg 76%
    03:00 +21°C° 0 mm 1 m/s 757 mmHg 78%
    04:00 +22°C° 0 mm 1 m/s 756 mmHg 77%
    05:00 +22°C° 0 mm 1 m/s 756 mmHg 76%
    06:00 +23°C° 0 mm 1 m/s 756 mmHg 74%
    07:00 +24°C° 0 mm 1 m/s 756 mmHg 69%
    08:00 +26°C° 0 mm 2 m/s 756 mmHg 63%
    09:00 +28°C° 0 mm 2 m/s 756 mmHg 58%
    10:00 +29°C° 0,1 mm 2 m/s 756 mmHg 54%
    11:00 +30°C° 0,1 mm 2 m/s 756 mmHg 51%
    12:00 +31°C° 0,1 mm 2 m/s 755 mmHg 47%
    13:00 +31°C° 0,1 mm 2 m/s 755 mmHg 46%
    14:00 +31°C° 0,1 mm 1 m/s 755 mmHg 46%
    15:00 +31°C° 0,1 mm 1 m/s 755 mmHg 45%
    16:00 +30°C° 0,1 mm 1 m/s 755 mmHg 50%
    17:00 +29°C° 0,1 mm 2 m/s 755 mmHg 55%
    18:00 +29°C° 0,1 mm 2 m/s 755 mmHg 60%
    19:00 +27°C° 0 mm 2 m/s 755 mmHg 64%
    20:00 +26°C° 0 mm 2 m/s 755 mmHg 68%
    21:00 +25°C° 0 mm 2 m/s 755 mmHg 72%
    22:00 +24°C° 0 mm 2 m/s 755 mmHg 74%
    23:00 +23°C° 0 mm 2 m/s 755 mmHg 77%

    Après-demain, 25 Juillet, Mercredi

    Heure Température Précipitation Vent Pression Humidité
    00:00 +23°C° 0 mm 2 m/s 755 mmHg 79%
    01:00 +21°C° 0 mm 2 m/s 755 mmHg 81%
    02:00 +21°C° 0 mm 2 m/s 755 mmHg 82%
    03:00 +21°C° 0 mm 2 m/s 755 mmHg 83%
    04:00 +21°C° 0 mm 2 m/s 755 mmHg 82%
    05:00 +21°C° 0 mm 2 m/s 756 mmHg 81%
    06:00 +23°C° 0 mm 2 m/s 756 mmHg 80%
    07:00 +24°C° 0 mm 2 m/s 756 mmHg 75%
    08:00 +26°C° 0 mm 2 m/s 756 mmHg 69%
    09:00 +27°C° 0 mm 2 m/s 756 mmHg 64%
    10:00 +28°C° 0,3 mm 2 m/s 756 mmHg 59%
    11:00 +30°C° 0,3 mm 2 m/s 756 mmHg 55%
    12:00 +31°C° 0,3 mm 2 m/s 756 mmHg 50%
    13:00 +31°C° 0,3 mm 2 m/s 756 mmHg 50%
    14:00 +31°C° 0,3 mm 2 m/s 756 mmHg 50%
    15:00 +31°C° 0,3 mm 2 m/s 756 mmHg 50%
    16:00 +30°C° 0,1 mm 2 m/s 756 mmHg 53%
    17:00 +30°C° 0,1 mm 2 m/s 756 mmHg 57%
    18:00 +29°C° 0,1 mm 2 m/s 756 mmHg 61%
    19:00 +28°C° 0,1 mm 2 m/s 756 mmHg 66%
    20:00 +26°C° 0,1 mm 2 m/s 756 mmHg 70%
    21:00 +25°C° 0,1 mm 2 m/s 756 mmHg 74%
    22:00 +24°C° 0 mm 2 m/s 756 mmHg 76%
    23:00 +23°C° 0 mm 2 m/s 756 mmHg 78%

    26 Juillet, Jeudi

    Heure Température Précipitation Vent Pression Humidité
    00:00 +23°C° 0 mm 2 m/s 756 mmHg 80%
    01:00 +21°C° 0 mm 2 m/s 756 mmHg 82%
    02:00 +22°C° 0 mm 1 m/s 756 mmHg 83%
    03:00 +22°C° 0 mm 1 m/s 756 mmHg 85%
    04:00 +22°C° 0 mm 1 m/s 756 mmHg 83%
    05:00 +23°C° 0 mm 1 m/s 756 mmHg 80%
    06:00 +24°C° 0 mm 1 m/s 756 mmHg 78%
    07:00 +25°C° 0 mm 1 m/s 756 mmHg 72%
    08:00 +27°C° 0 mm 1 m/s 756 mmHg 65%
    09:00 +29°C° 0 mm 1 m/s 756 mmHg 58%
    10:00 +31°C° 0 mm 1 m/s 756 mmHg 54%
    11:00 +30°C° 0 mm 0 m/s 756 mmHg 49%
    12:00 +31°C° 0 mm 0 m/s 756 mmHg 44%
    13:00 +31°C° 0 mm 0 m/s 756 mmHg 45%
    14:00 +31°C° 0 mm 0 m/s 755 mmHg 45%
    15:00 +31°C° 0 mm 0 m/s 755 mmHg 46%
    16:00 +30°C° 0 mm 0 m/s 755 mmHg 48%
    17:00 +30°C° 0 mm 0 m/s 755 mmHg 51%
    18:00 +29°C° 0 mm 0 m/s 755 mmHg 53%
    19:00 +30°C° 0 mm 1 m/s 755 mmHg 56%
    20:00 +29°C° 0 mm 1 m/s 755 mmHg 58%
    21:00 +27°C° 0 mm 1 m/s 755 mmHg 60%
    22:00 +27°C° 0 mm 1 m/s 755 mmHg 63%
    23:00 +26°C° 0 mm 1 m/s 755 mmHg 66%

    27 Juillet, Vendredi

    Heure Température Précipitation Vent Pression Humidité
    00:00 +25°C° 0 mm 1 m/s 755 mmHg 69%
    01:00 +25°C° 0 mm 1 m/s 755 mmHg 71%
    02:00 +24°C° 0 mm 1 m/s 755 mmHg 73%
    03:00 +24°C° 0 mm 1 m/s 754 mmHg 75%
    04:00 +23°C° 0 mm 0 m/s 755 mmHg 74%
    05:00 +23°C° 0 mm 0 m/s 755 mmHg 72%
    06:00 +24°C° 0 mm 0 m/s 755 mmHg 71%
    07:00 +27°C° 0,1 mm 1 m/s 755 mmHg 65%
    08:00 +29°C° 0,1 mm 1 m/s 755 mmHg 59%
    09:00 +31°C° 0,1 mm 2 m/s 755 mmHg 54%
    10:00 +31°C° 0,2 mm 2 m/s 755 mmHg 50%
    11:00 +32°C° 0,2 mm 2 m/s 755 mmHg 46%
    12:00 +34°C° 0,2 mm 2 m/s 755 mmHg 43%
    13:00 +34°C° 0 mm 3 m/s 755 mmHg 44%
    14:00 +33°C° 0 mm 3 m/s 755 mmHg 46%
    15:00 +33°C° 0 mm 3 m/s 755 mmHg 48%
    16:00 +31°C° 0,1 mm 3 m/s 755 mmHg 52%
    17:00 +31°C° 0,1 mm 3 m/s 755 mmHg 56%
    18:00 +30°C° 0,1 mm 3 m/s 755 mmHg 60%
    19:00 +28°C° 0,2 mm 3 m/s 755 mmHg 67%
    20:00 +26°C° 0,2 mm 3 m/s 755 mmHg 75%
    21:00 +22°C° 0,2 mm 3 m/s 756 mmHg 82%
    22:00 +22°C° 0 mm 3 m/s 756 mmHg 82%
    23:00 +21°C° 0 mm 3 m/s 756 mmHg 82%

    28 Juillet, Samedi

    Heure Température Précipitation Vent Pression Humidité
    00:00 +20°C° 0 mm 3 m/s 756 mmHg 82%
    01:00 +19°C° 0 mm 2 m/s 757 mmHg 83%
    02:00 +19°C° 0 mm 2 m/s 757 mmHg 84%
    03:00 +18°C° 0 mm 2 m/s 757 mmHg 85%
    04:00 +18°C° 0 mm 2 m/s 757 mmHg 83%
    05:00 +19°C° 0 mm 2 m/s 757 mmHg 82%
    06:00 +19°C° 0 mm 3 m/s 757 mmHg 80%
    07:00 +20°C° 0 mm 3 m/s 758 mmHg 74%
    08:00 +21°C° 0 mm 3 m/s 758 mmHg 68%
    09:00 +24°C° 0 mm 3 m/s 758 mmHg 63%
    10:00 +25°C° 0 mm 3 m/s 758 mmHg 58%
    11:00 +26°C° 0 mm 3 m/s 758 mmHg 54%
    12:00 +27°C° 0 mm 3 m/s 758 mmHg 50%
    13:00 +27°C° 0 mm 3 m/s 758 mmHg 50%
    14:00 +27°C° 0 mm 3 m/s 758 mmHg 50%
    15:00 +27°C° 0 mm 3 m/s 758 mmHg 50%
    16:00 +26°C° 0 mm 3 m/s 758 mmHg 53%
    17:00 +26°C° 0 mm 3 m/s 758 mmHg 55%
    18:00 +25°C° 0 mm 3 m/s 758 mmHg 58%
    19:00 +22°C° 0 mm 3 m/s 759 mmHg 62%
    20:00 +21°C° 0 mm 3 m/s 759 mmHg 65%
    21:00 +19°C° 0 mm 2 m/s 759 mmHg 69%
    22:00 +19°C° 0 mm 2 m/s 759 mmHg 71%
    23:00 +18°C° 0 mm 2 m/s 759 mmHg 72%
    Voir plus